Tracking 28790 objects as of 19-Apr-2024
HD Live streaming from Space Station
objects crossing your sky now

COSMOS 2251 DEB

Track COSMOS 2251 DEB now!
10-day predictions


NORAD ID: 34792
Int'l Code: 1993-036AAV
Perigee: 731.4 km
Apogee: 752.7 km
Inclination: 74.0 °
Period: 99.5 minutes
Semi major axis: 7113 km
RCS: 0.0102 m2 (small)
Launch date: June 16, 1993
Source: Commonwealth of Independent States (former USSR) (CIS)
Launch site: PLESETSK MISSILE AND SPACE COMPLEX (PKMTR)

Note: This is SATELLITE DEBRIS
Your satellite tracking list
Your tracking list is empty




NASA's NSSDC Master Catalog

Two Line Element Set (TLE):
1 34792U 93036AAV 24109.70334671  .00009216  00000-0  25252-2 0  9999
2 34792  74.0234 226.9309 0015021  99.0645 329.3723 14.47169045788979
Source of the keplerian elements: AFSPC